EN

Hourly Weather Bolshoe Lavrovo

Today, 29 October, Thursday

Time Temperature Precipitation Wind Pressure Humidity
00:00 +2°C° 0 mm 3 mps 757 mmHg 58%
01:00 +2°C° 0 mm 3 mps 757 mmHg 60%
02:00 +2°C° 0 mm 3 mps 757 mmHg 63%
03:00 +1°C° 0 mm 3 mps 756 mmHg 65%
04:00 +1°C° 0 mm 3 mps 756 mmHg 66%
05:00 +1°C° 0 mm 3 mps 756 mmHg 66%
06:00 +1°C° 0 mm 3 mps 756 mmHg 67%
07:00 +1°C° 0 mm 3 mps 756 mmHg 64%
08:00 +2°C° 0 mm 3 mps 756 mmHg 62%
09:00 +1°C° 0 mm 4 mps 756 mmHg 60%
10:00 +3°C° 0 mm 4 mps 756 mmHg 57%
11:00 +5°C° 0 mm 4 mps 756 mmHg 54%
12:00 +6°C° 0 mm 4 mps 755 mmHg 51%
13:00 +6°C° 0 mm 4 mps 755 mmHg 50%
14:00 +7°C° 0 mm 4 mps 754 mmHg 49%
15:00 +7°C° 0 mm 4 mps 754 mmHg 48%
16:00 +7°C° 0 mm 3 mps 754 mmHg 52%
17:00 +5°C° 0 mm 3 mps 753 mmHg 55%
18:00 +5°C° 0 mm 3 mps 753 mmHg 59%
19:00 +5°C° 0 mm 3 mps 753 mmHg 57%
20:00 +7°C° 0 mm 3 mps 753 mmHg 55%
21:00 +6°C° 0 mm 4 mps 753 mmHg 53%
22:00 +7°C° 0 mm 3 mps 752 mmHg 54%
23:00 +7°C° 0 mm 3 mps 752 mmHg 55%

Tomorrow, 30 October, Friday

Time Temperature Precipitation Wind Pressure Humidity
00:00 +7°C° 0 mm 3 mps 752 mmHg 55%
01:00 +5°C° 0 mm 3 mps 751 mmHg 58%
02:00 +5°C° 0 mm 3 mps 751 mmHg 62%
03:00 +4°C° 0 mm 3 mps 751 mmHg 65%
04:00 +4°C° 0 mm 3 mps 750 mmHg 67%
05:00 +4°C° 0 mm 3 mps 750 mmHg 70%
06:00 +4°C° 0 mm 3 mps 750 mmHg 72%
07:00 +5°C° 0.1 mm 3 mps 750 mmHg 73%
08:00 +5°C° 0.1 mm 3 mps 750 mmHg 74%
09:00 +7°C° 0.1 mm 3 mps 750 mmHg 74%
10:00 +7°C° 0 mm 3 mps 750 mmHg 76%
11:00 +7°C° 0 mm 3 mps 749 mmHg 77%
12:00 +7°C° 0 mm 3 mps 749 mmHg 78%
13:00 +7°C° 0.1 mm 3 mps 749 mmHg 79%
14:00 +7°C° 0.1 mm 2 mps 749 mmHg 81%
15:00 +7°C° 0.1 mm 2 mps 749 mmHg 82%
16:00 +7°C° 0.1 mm 2 mps 748 mmHg 84%
17:00 +7°C° 0.1 mm 2 mps 748 mmHg 86%
18:00 +7°C° 0.1 mm 2 mps 748 mmHg 87%
19:00 +7°C° 0 mm 2 mps 748 mmHg 88%
20:00 +7°C° 0 mm 2 mps 748 mmHg 89%
21:00 +7°C° 0 mm 2 mps 748 mmHg 90%
22:00 +7°C° 0.4 mm 2 mps 748 mmHg 92%
23:00 +8°C° 0.4 mm 1 mps 747 mmHg 93%

Day after tomorrow, 31 October, Saturday

Time Temperature Precipitation Wind Pressure Humidity
00:00 +8°C° 0.4 mm 1 mps 747 mmHg 95%
01:00 +8°C° 0.8 mm 1 mps 747 mmHg 96%
02:00 +8°C° 0.8 mm 1 mps 747 mmHg 96%
03:00 +8°C° 0.8 mm 1 mps 747 mmHg 97%
04:00 +8°C° 0.5 mm 1 mps 747 mmHg 97%
05:00 +8°C° 0.5 mm 1 mps 747 mmHg 97%
06:00 +8°C° 0.5 mm 1 mps 747 mmHg 97%
07:00 +8°C° 0.2 mm 1 mps 747 mmHg 97%
08:00 +8°C° 0.2 mm 1 mps 747 mmHg 96%
09:00 +8°C° 0.2 mm 1 mps 747 mmHg 96%
10:00 +8°C° 0.1 mm 2 mps 747 mmHg 95%
11:00 +8°C° 0.1 mm 2 mps 747 mmHg 94%
12:00 +8°C° 0.1 mm 2 mps 748 mmHg 94%
13:00 +8°C° 0 mm 2 mps 748 mmHg 93%
14:00 +8°C° 0 mm 2 mps 748 mmHg 92%
15:00 +8°C° 0 mm 2 mps 749 mmHg 92%
16:00 +8°C° 0 mm 2 mps 749 mmHg 92%
17:00 +8°C° 0 mm 3 mps 749 mmHg 93%
18:00 +8°C° 0 mm 3 mps 749 mmHg 93%
19:00 +8°C° 0 mm 3 mps 750 mmHg 93%
20:00 +8°C° 0 mm 3 mps 750 mmHg 93%
21:00 +8°C° 0 mm 3 mps 751 mmHg 93%
22:00 +8°C° 0 mm 3 mps 751 mmHg 93%
23:00 +8°C° 0 mm 3 mps 751 mmHg 93%

1 November, Sunday

Time Temperature Precipitation Wind Pressure Humidity
00:00 +8°C° 0 mm 3 mps 751 mmHg 92%
01:00 +6°C° 0 mm 4 mps 752 mmHg 92%
02:00 +6°C° 0 mm 4 mps 752 mmHg 92%
03:00 +6°C° 0 mm 4 mps 752 mmHg 92%
04:00 +6°C° 0 mm 4 mps 752 mmHg 92%
05:00 +6°C° 0 mm 5 mps 752 mmHg 91%
06:00 +6°C° 0 mm 5 mps 752 mmHg 91%
07:00 +6°C° 0 mm 5 mps 753 mmHg 90%
08:00 +7°C° 0 mm 5 mps 753 mmHg 89%
09:00 +7°C° 0 mm 5 mps 753 mmHg 89%
10:00 +7°C° 0.1 mm 5 mps 753 mmHg 88%
11:00 +7°C° 0.1 mm 5 mps 754 mmHg 87%
12:00 +7°C° 0.1 mm 5 mps 754 mmHg 86%
13:00 +7°C° 0.2 mm 5 mps 754 mmHg 87%
14:00 +7°C° 0.2 mm 5 mps 754 mmHg 87%
15:00 +7°C° 0.2 mm 5 mps 754 mmHg 88%
16:00 +7°C° 0.3 mm 5 mps 754 mmHg 88%
17:00 +7°C° 0.3 mm 5 mps 754 mmHg 89%
18:00 +7°C° 0.3 mm 5 mps 754 mmHg 90%
19:00 +7°C° 0.2 mm 5 mps 754 mmHg 90%
20:00 +7°C° 0.2 mm 4 mps 754 mmHg 91%
21:00 +7°C° 0.2 mm 4 mps 754 mmHg 91%
22:00 +7°C° 0 mm 4 mps 754 mmHg 91%
23:00 +7°C° 0 mm 4 mps 755 mmHg 91%

2 November, Monday

Time Temperature Precipitation Wind Pressure Humidity
00:00 +7°C° 0 mm 4 mps 755 mmHg 91%
01:00 +6°C° 0 mm 4 mps 755 mmHg 91%
02:00 +7°C° 0 mm 3 mps 755 mmHg 91%
03:00 +7°C° 0 mm 3 mps 755 mmHg 92%
04:00 +7°C° 0 mm 3 mps 756 mmHg 91%
05:00 +8°C° 0 mm 3 mps 756 mmHg 91%
06:00 +8°C° 0 mm 3 mps 756 mmHg 90%
07:00 +8°C° 0 mm 3 mps 756 mmHg 89%
08:00 +8°C° 0 mm 3 mps 757 mmHg 88%
09:00 +8°C° 0 mm 3 mps 757 mmHg 88%
10:00 +8°C° 0 mm 3 mps 757 mmHg 85%
11:00 +9°C° 0 mm 3 mps 758 mmHg 82%
12:00 +9°C° 0 mm 3 mps 758 mmHg 79%
13:00 +10°C° 0 mm 2 mps 758 mmHg 77%
14:00 +10°C° 0 mm 2 mps 758 mmHg 75%
15:00 +10°C° 0 mm 2 mps 758 mmHg 74%
16:00 +9°C° 0 mm 2 mps 759 mmHg 77%
17:00 +9°C° 0 mm 2 mps 759 mmHg 81%
18:00 +8°C° 0 mm 2 mps 759 mmHg 84%
19:00 +8°C° 0 mm 2 mps 759 mmHg 85%
20:00 +7°C° 0 mm 2 mps 760 mmHg 86%
21:00 +7°C° 0 mm 2 mps 760 mmHg 86%
22:00 +7°C° 0 mm 2 mps 760 mmHg 87%
23:00 +6°C° 0 mm 2 mps 760 mmHg 87%

3 November, Tuesday

Time Temperature Precipitation Wind Pressure Humidity
00:00 +6°C° 0 mm 2 mps 760 mmHg 88%
01:00 +6°C° 0 mm 2 mps 760 mmHg 88%
02:00 +6°C° 0 mm 2 mps 760 mmHg 88%
03:00 +5°C° 0 mm 3 mps 761 mmHg 88%
04:00 +6°C° 0 mm 2 mps 761 mmHg 88%
05:00 +5°C° 0 mm 2 mps 761 mmHg 89%
06:00 +5°C° 0 mm 2 mps 761 mmHg 89%
07:00 +5°C° 0 mm 3 mps 761 mmHg 87%
08:00 +5°C° 0 mm 3 mps 762 mmHg 85%
09:00 +7°C° 0 mm 3 mps 762 mmHg 83%
10:00 +8°C° 0 mm 3 mps 762 mmHg 78%
11:00 +9°C° 0 mm 3 mps 762 mmHg 73%
12:00 +10°C° 0 mm 3 mps 762 mmHg 69%
13:00 +11°C° 0 mm 3 mps 762 mmHg 67%
14:00 +11°C° 0 mm 3 mps 762 mmHg 66%
15:00 +12°C° 0 mm 3 mps 762 mmHg 64%
16:00 +11°C° 0 mm 3 mps 762 mmHg 68%
17:00 +10°C° 0 mm 3 mps 762 mmHg 72%
18:00 +9°C° 0 mm 3 mps 762 mmHg 76%
19:00 +8°C° 0 mm 3 mps 762 mmHg 76%
20:00 +8°C° 0 mm 3 mps 762 mmHg 77%
21:00 +8°C° 0 mm 3 mps 762 mmHg 77%
22:00 +7°C° 0 mm 3 mps 762 mmHg 77%
23:00 +7°C° 0 mm 3 mps 762 mmHg 77%
Show more